| time (UTC) | temp F | wind direction | speed MPH | gust MPH | rain 1hr in | rain 24hr in | rain mn in | humidity % | barometer mb |
| 20260510230812 | 70 | 24 | 0.0 | 1.0 | 0.00 | 0.00 | 0.00 | 35 | 1014.7 |
| 20260510230308 | 70 | 24 | 0.0 | 2.0 | 0.00 | 0.00 | 0.00 | 36 | 1014.6 |
| 20260510225803 | 70 | 80 | 0.0 | 2.0 | 0.00 | 0.00 | 0.00 | 37 | 1014.6 |
| 20260510225306 | 70 | 352 | 0.0 | 4.0 | 0.00 | 0.00 | 0.00 | 36 | 1014.7 |
| 20260510224757 | 70 | 352 | 1.0 | 4.0 | 0.00 | 0.00 | 0.00 | 36 | 1014.7 |
| 20260510224258 | 70 | 106 | 0.0 | 4.0 | 0.00 | 0.00 | 0.00 | 36 | 1014.9 |
| 20260510223758 | 70 | 159 | 0.0 | 4.0 | 0.00 | 0.00 | 0.00 | 36 | 1015.0 |
| 20260510223515 | 70 | 123 | 0.0 | 4.0 | 0.00 | 0.00 | 0.00 | 34 | 1015.0 |
| 20260510222744 | 70 | 223 | 1.0 | 4.0 | 0.00 | 0.00 | 0.00 | 34 | 1015.1 |
| 20260510222504 | 70 | 301 | 0.0 | 4.0 | 0.00 | 0.00 | 0.00 | 34 | 1015.3 |
| 20260510221744 | 70 | 338 | 1.0 | 8.0 | 0.00 | 0.00 | 0.00 | 35 | 1015.4 |
| 20260510221244 | 70 | 341 | 0.0 | 8.0 | 0.00 | 0.00 | 0.00 | 35 | 1015.4 |
| 20260510220734 | 70 | 121 | 1.0 | 8.0 | 0.00 | 0.00 | 0.00 | 33 | 1015.5 |
| 20260510220235 | 71 | 306 | 1.0 | 8.0 | 0.00 | 0.00 | 0.00 | 33 | 1015.6 |
| 20260510215730 | 71 | 175 | 2.0 | 10.0 | 0.00 | 0.00 | 0.00 | 33 | 1015.4 |
| 20260510215214 | 71 | 213 | 3.0 | 10.0 | 0.00 | 0.00 | 0.00 | 33 | 1015.6 |
| 20260510214709 | 72 | 34 | 4.0 | 10.0 | 0.00 | 0.00 | 0.00 | 35 | 1015.6 |
| 20260510214210 | 72 | 0 | 0.0 | 2.0 | 0.00 | 0.00 | 0.00 | 34 | 1015.6 |
| 20260510213934 | 72 | 65 | 0.0 | 4.0 | 0.00 | 0.00 | 0.00 | 34 | 1015.4 |
| 20260510213210 | 72 | 101 | 0.0 | 4.0 | 0.00 | 0.00 | 0.00 | 32 | 1015.4 |
| 20260510212710 | 73 | 113 | 0.0 | 1.0 | 0.00 | 0.00 | 0.00 | 33 | 1015.5 |
| 20260510212205 | 72 | 87 | 0.0 | 5.0 | 0.00 | 0.00 | 0.00 | 36 | 1015.6 |
| 20260510211706 | 73 | 5 | 0.0 | 11.0 | 0.00 | 0.00 | 0.00 | 32 | 1015.7 |
| 20260510211201 | 73 | 129 | 2.0 | 11.0 | 0.00 | 0.00 | 0.00 | 31 | 1015.7 |
| 20260510210701 | 73 | 72 | 0.0 | 4.0 | 0.00 | 0.00 | 0.00 | 32 | 1015.8 |
| 20260510210201 | 72 | 277 | 0.0 | 7.0 | 0.00 | 0.00 | 0.00 | 35 | 1015.8 |
| 20260510205703 | 72 | 123 | 1.0 | 7.0 | 0.00 | 0.00 | 0.00 | 32 | 1015.9 |
| 20260510205157 | 72 | 176 | 0.0 | 8.0 | 0.00 | 0.00 | 0.00 | 32 | 1016.0 |
| 20260510204652 | 72 | 184 | 2.0 | 8.0 | 0.00 | 0.00 | 0.00 | 32 | 1016.0 |
| 20260510204152 | 72 | 19 | 0.0 | 3.0 | 0.00 | 0.00 | 0.00 | 32 | 1016.2 |
| 20260510203652 | 72 | 208 | 0.0 | 3.0 | 0.00 | 0.00 | 0.00 | 33 | 1016.2 |
| 20260510203417 | 72 | 41 | 1.0 | 7.0 | 0.00 | 0.00 | 0.00 | 33 | 1016.3 |
| 20260510203255 | 72 | 288 | 0.0 | 7.0 | 0.00 | 0.00 | 0.00 | 35 | 1016.3 |
| 20260510202147 | 72 | 204 | 1.0 | 8.0 | 0.00 | 0.00 | 0.00 | 33 | 1016.4 |
| 20260510201643 | 72 | 311 | 0.0 | 8.0 | 0.00 | 0.00 | 0.00 | 32 | 1016.5 |
| 20260510201140 | 72 | 78 | 0.0 | 5.0 | 0.00 | 0.00 | 0.00 | 35 | 1016.5 |
| 20260510200628 | 71 | 61 | 2.0 | 5.0 | 0.00 | 0.00 | 0.00 | 34 | 1016.6 |
| 20260510200127 | 71 | 325 | 1.0 | 7.0 | 0.00 | 0.00 | 0.00 | 33 | 1016.5 |
| 20260510195628 | 71 | 117 | 3.0 | 7.0 | 0.00 | 0.00 | 0.00 | 33 | 1016.5 |
| 20260510195128 | 71 | 247 | 1.0 | 7.0 | 0.00 | 0.00 | 0.00 | 35 | 1016.5 |
| 20260510194623 | 71 | 59 | 0.0 | 9.0 | 0.00 | 0.00 | 0.00 | 37 | 1016.6 |
| 20260510194118 | 70 | 292 | 2.0 | 9.0 | 0.00 | 0.00 | 0.00 | 34 | 1016.6 |
| 20260510193855 | 70 | 288 | 0.0 | 5.0 | 0.00 | 0.00 | 0.00 | 37 | 1016.6 |
| 20260510193117 | 70 | 247 | 1.0 | 6.0 | 0.00 | 0.00 | 0.00 | 36 | 1016.7 |
| 20260510192841 | 69 | 338 | 0.0 | 6.0 | 0.00 | 0.00 | 0.00 | 35 | 1016.7 |
| 20260510192325 | 69 | 11 | 0.0 | 5.0 | 0.00 | 0.00 | 0.00 | 38 | 1016.8 |
| 20260510191823 | 69 | 155 | 0.0 | 6.0 | 0.00 | 0.00 | 0.00 | 36 | 1016.8 |
| 20260510191103 | 68 | 157 | 1.0 | 6.0 | 0.00 | 0.00 | 0.00 | 35 | 1017.0 |
| 20260510190559 | 68 | 117 | 1.0 | 15.0 | 0.00 | 0.00 | 0.00 | 37 | 1017.2 |
| 20260510190059 | 68 | 192 | 2.0 | 12.0 | 0.00 | 0.00 | 0.00 | 37 | 1017.3 |
| 20260510190044 | 67 | 68 | 3.0 | 8.0 | 0.00 | 0.00 | 0.00 | 37 | 1017.0 |
| 20260510185054 | 67 | 93 | 1.0 | 9.0 | 0.00 | 0.00 | 0.00 | 40 | 1017.3 |
| 20260510184555 | 67 | 182 | 1.0 | 9.0 | 0.00 | 0.00 | 0.00 | 40 | 1017.4 |
| 20260510184058 | 67 | 210 | 1.0 | 8.0 | 0.00 | 0.00 | 0.00 | 41 | 1017.5 |
| 20260510183552 | 67 | 105 | 2.0 | 7.0 | 0.00 | 0.00 | 0.00 | 42 | 1017.6 |
| 20260510183313 | 67 | 329 | 1.0 | 8.0 | 0.00 | 0.00 | 0.00 | 42 | 1017.7 |
| 20260510182546 | 67 | 142 | 3.0 | 8.0 | 0.00 | 0.00 | 0.00 | 44 | 1017.8 |
| 20260510182308 | 66 | 240 | 2.0 | 8.0 | 0.00 | 0.00 | 0.00 | 46 | 1017.8 |
| 20260510181540 | 66 | 89 | 3.0 | 8.0 | 0.00 | 0.00 | 0.00 | 47 | 1017.8 |
| 20260510181258 | 66 | 313 | 1.0 | 3.0 | 0.00 | 0.00 | 0.00 | 47 | 1017.9 |
| 20260510180541 | 66 | 296 | 0.0 | 3.0 | 0.00 | 0.00 | 0.00 | 48 | 1017.9 |
| 20260510180530 | 65 | 103 | 0.0 | 4.0 | 0.00 | 0.00 | 0.00 | 49 | 1017.9 |
| 20260510175539 | 65 | 102 | 0.0 | 4.0 | 0.00 | 0.00 | 0.00 | 51 | 1018.1 |
| 20260510175036 | 64 | 109 | 2.0 | 4.0 | 0.00 | 0.00 | 0.00 | 50 | 1018.2 |
| 20260510174537 | 64 | 87 | 1.0 | 5.0 | 0.00 | 0.00 | 0.00 | 51 | 1018.2 |
| 20260510174300 | 64 | 209 | 1.0 | 5.0 | 0.00 | 0.00 | 0.00 | 53 | 1018.3 |
| 20260510173536 | 63 | 192 | 0.0 | 4.0 | 0.00 | 0.00 | 0.00 | 53 | 1018.4 |
| 20260510173040 | 63 | 125 | 1.0 | 4.0 | 0.00 | 0.00 | 0.00 | 55 | 1018.5 |
| 20260510172533 | 62 | 115 | 0.0 | 3.0 | 0.00 | 0.00 | 0.00 | 59 | 1018.4 |
| 20260510172022 | 62 | 148 | 0.0 | 4.0 | 0.00 | 0.00 | 0.00 | 58 | 1018.5 |
| 20260510171513 | 61 | 121 | 2.0 | 4.0 | 0.00 | 0.00 | 0.00 | 56 | 1018.6 |
| 20260510171002 | 61 | 99 | 0.0 | 4.0 | 0.00 | 0.00 | 0.00 | 59 | 1018.7 |
| 20260510170502 | 60 | 124 | 0.0 | 4.0 | 0.00 | 0.00 | 0.00 | 58 | 1018.8 |
| 20260510170003 | 60 | 103 | 1.0 | 4.0 | 0.00 | 0.00 | 0.00 | 60 | 1018.9 |
| 20260510165458 | 59 | 111 | 0.0 | 4.0 | 0.00 | 0.00 | 0.00 | 62 | 1018.8 |
| 20260510165205 | 59 | 111 | 1.0 | 4.0 | 0.00 | 0.00 | 0.00 | 61 | 1018.8 |
| 20260510164443 | 58 | 108 | 0.0 | 1.0 | 0.00 | 0.00 | 0.00 | 63 | 1018.9 |
| 20260510163938 | 57 | 108 | 0.0 | 2.0 | 0.00 | 0.00 | 0.00 | 63 | 1018.9 |
| 20260510163434 | 57 | 108 | 0.0 | 2.0 | 0.00 | 0.00 | 0.00 | 65 | 1018.9 |
| 20260510162933 | 56 | 108 | 0.0 | 3.0 | 0.00 | 0.00 | 0.00 | 65 | 1018.9 |
| 20260510162434 | 56 | 108 | 1.0 | 3.0 | 0.00 | 0.00 | 0.00 | 65 | 1018.9 |
| 20260510161934 | 56 | 112 | 0.0 | 2.0 | 0.00 | 0.00 | 0.00 | 68 | 1018.9 |
| 20260510161652 | 55 | 116 | 0.0 | 3.0 | 0.00 | 0.00 | 0.00 | 67 | 1019.1 |
| 20260510160930 | 55 | 117 | 0.0 | 2.0 | 0.00 | 0.00 | 0.00 | 68 | 1019.2 |
| 20260510160432 | 55 | 101 | 0.0 | 2.0 | 0.00 | 0.00 | 0.00 | 68 | 1019.3 |
| 20260510155905 | 54 | 101 | 0.0 | 2.0 | 0.00 | 0.00 | 0.00 | 70 | 1019.3 |
| 20260510155636 | 54 | 98 | 0.0 | 3.0 | 0.00 | 0.00 | 0.00 | 70 | 1019.4 |
| 20260510154905 | 54 | 98 | 1.0 | 3.0 | 0.00 | 0.00 | 0.00 | 71 | 1019.5 |
| 20260510154405 | 53 | 80 | 0.0 | 3.0 | 0.00 | 0.00 | 0.00 | 71 | 1019.5 |
| 20260510153908 | 53 | 122 | 0.0 | 2.0 | 0.00 | 0.00 | 0.00 | 72 | 1019.5 |
| 20260510153405 | 52 | 167 | 0.0 | 5.0 | 0.00 | 0.00 | 0.00 | 75 | 1019.6 |
| 20260510152905 | 52 | 167 | 1.0 | 5.0 | 0.00 | 0.00 | 0.00 | 73 | 1019.5 |
| 20260510152400 | 52 | 94 | 1.0 | 3.0 | 0.00 | 0.00 | 0.00 | 74 | 1019.6 |
| 20260510151900 | 51 | 88 | 0.0 | 2.0 | 0.00 | 0.00 | 0.00 | 75 | 1019.7 |
| 20260510151356 | 51 | 83 | 0.0 | 1.0 | 0.00 | 0.00 | 0.00 | 76 | 1019.6 |
| 20260510150857 | 50 | 83 | 0.0 | 1.0 | 0.00 | 0.00 | 0.00 | 78 | 1019.6 |
| 20260510150356 | 50 | 83 | 0.0 | 2.0 | 0.00 | 0.00 | 0.00 | 76 | 1019.5 |
| 20260510150340 | 49 | 83 | 0.0 | 2.0 | 0.00 | 0.00 | 0.00 | 76 | 1019.6 |
| 20260510145342 | 49 | 82 | 0.0 | 4.0 | 0.00 | 0.00 | 0.00 | 79 | 1019.7 |
| 20260510144836 | 49 | 81 | 0.0 | 4.0 | 0.00 | 0.00 | 0.00 | 78 | 1019.8 |
| 20260510144332 | 48 | 142 | 0.0 | 2.0 | 0.00 | 0.00 | 0.00 | 79 | 1019.7 |
| 20260510144053 | 48 | 149 | 0.0 | 2.0 | 0.00 | 0.00 | 0.00 | 80 | 1019.8 |
| 20260510143335 | 47 | 144 | 0.0 | 2.0 | 0.00 | 0.00 | 0.00 | 82 | 1019.8 |
| 20260510142832 | 47 | 159 | 0.0 | 2.0 | 0.00 | 0.00 | 0.00 | 84 | 1019.9 |
| 20260510142332 | 46 | 280 | 0.0 | 0.0 | 0.00 | 0.00 | 0.00 | 88 | 1019.9 |
| 20260510141828 | 45 | 280 | 0.0 | 0.0 | 0.00 | 0.00 | 0.00 | 90 | 1020.1 |
| 20260510141327 | 45 | 280 | 0.0 | 3.0 | 0.00 | 0.00 | 0.00 | 92 | 1020.1 |
| 20260510140831 | 44 | 280 | 0.0 | 3.0 | 0.00 | 0.00 | 0.00 | 93 | 1020.1 |
| 20260510140328 | 44 | 272 | 0.0 | 0.0 | 0.00 | 0.00 | 0.00 | 95 | 1020.1 |
| 20260510140051 | 43 | 272 | 0.0 | 0.0 | 0.00 | 0.00 | 0.00 | 96 | 1020.1 |
| 20260510135329 | 42 | 272 | 0.0 | 0.0 | 0.00 | 0.00 | 0.00 | 96 | 1020.1 |
| 20260510134828 | 42 | 272 | 0.0 | 0.0 | 0.00 | 0.00 | 0.00 | 95 | 1019.9 |
| 20260510134326 | 42 | 272 | 0.0 | 0.0 | 0.00 | 0.00 | 0.00 | 95 | 1020.1 |
| 20260510134043 | 41 | 272 | 0.0 | 0.0 | 0.00 | 0.00 | 0.00 | 95 | 1020.1 |
| 20260510133527 | 41 | 272 | 0.0 | 0.0 | 0.00 | 0.00 | 0.00 | 95 | 1019.9 |
| 20260510132805 | 40 | 272 | 0.0 | 0.0 | 0.00 | 0.00 | 0.00 | 95 | 1020.1 |
| 20260510132306 | 40 | 272 | 0.0 | 0.0 | 0.00 | 0.00 | 0.00 | 95 | 1019.9 |
| 20260510131804 | 40 | 272 | 0.0 | 0.0 | 0.00 | 0.00 | 0.00 | 94 | 1019.9 |
| 20260510131305 | 40 | 272 | 0.0 | 0.0 | 0.00 | 0.00 | 0.00 | 94 | 1020.1 |
| 20260510130800 | 40 | 272 | 0.0 | 0.0 | 0.00 | 0.00 | 0.00 | 94 | 1020.1 |
| 20260510130254 | 39 | 272 | 0.0 | 0.0 | 0.00 | 0.00 | 0.00 | 94 | 1020.1 |
| 20260510125749 | 39 | 272 | 0.0 | 0.0 | 0.00 | 0.00 | 0.00 | 94 | 1020.1 |
| 20260510125733 | 39 | 272 | 0.0 | 0.0 | 0.00 | 0.00 | 0.00 | 93 | 1020.1 |
| 20260510124745 | 39 | 272 | 0.0 | 0.0 | 0.00 | 0.00 | 0.00 | 93 | 1020.2 |
| 20260510124520 | 39 | 272 | 0.0 | 0.0 | 0.00 | 0.00 | 0.00 | 93 | 1020.2 |
| 20260510123730 | 39 | 272 | 0.0 | 0.0 | 0.00 | 0.00 | 0.00 | 93 | 1020.2 |
| 20260510123233 | 39 | 272 | 0.0 | 0.0 | 0.00 | 0.00 | 0.00 | 93 | 1020.3 |
| 20260510122725 | 39 | 272 | 0.0 | 0.0 | 0.00 | 0.00 | 0.00 | 93 | 1020.2 |
| 20260510122226 | 39 | 272 | 0.0 | 0.0 | 0.00 | 0.00 | 0.00 | 92 | 1020.1 |
| 20260510121726 | 39 | 272 | 0.0 | 0.0 | 0.00 | 0.00 | 0.00 | 92 | 1020.1 |
| 20260510121226 | 39 | 272 | 0.0 | 0.0 | 0.00 | 0.00 | 0.00 | 92 | 1020.1 |
| 20260510120727 | 39 | 272 | 0.0 | 0.0 | 0.00 | 0.00 | 0.00 | 92 | 1020.1 |
| 20260510120222 | 40 | 272 | 0.0 | 0.0 | 0.00 | 0.00 | 0.00 | 92 | 1020.1 |
| 20260510115722 | 40 | 272 | 0.0 | 0.0 | 0.00 | 0.00 | 0.00 | 92 | 1020.1 |
| 20260510115222 | 40 | 272 | 0.0 | 0.0 | 0.00 | 0.00 | 0.00 | 92 | 1019.9 |
| 20260510114938 | 40 | 272 | 0.0 | 0.0 | 0.00 | 0.00 | 0.00 | 92 | 1020.1 |
| 20260510114202 | 40 | 272 | 0.0 | 1.0 | 0.00 | 0.00 | 0.00 | 92 | 1020.2 |
| 20260510113702 | 40 | 272 | 0.0 | 1.0 | 0.00 | 0.00 | 0.00 | 92 | 1020.1 |
| 20260510113205 | 40 | 272 | 0.0 | 0.0 | 0.00 | 0.00 | 0.00 | 92 | 1020.1 |
| 20260510112700 | 40 | 272 | 0.0 | 0.0 | 0.00 | 0.00 | 0.00 | 92 | 1020.3 |
| 20260510112156 | 40 | 272 | 0.0 | 0.0 | 0.00 | 0.00 | 0.00 | 91 | 1020.2 |
| 20260510111851 | 40 | 272 | 0.0 | 0.0 | 0.00 | 0.00 | 0.00 | 91 | 1020.3 |
| 20260510111127 | 40 | 272 | 0.0 | 0.0 | 0.00 | 0.00 | 0.00 | 91 | 1020.2 |
| 20260510110628 | 40 | 272 | 0.0 | 0.0 | 0.00 | 0.00 | 0.00 | 91 | 1020.2 |
| 20260510110128 | 40 | 272 | 0.0 | 0.0 | 0.00 | 0.00 | 0.00 | 91 | 1020.3 |
| 20260510105626 | 41 | 272 | 0.0 | 0.0 | 0.00 | 0.00 | 0.00 | 91 | 1020.3 |
| 20260510105121 | 41 | 272 | 0.0 | 0.0 | 0.00 | 0.00 | 0.00 | 91 | 1020.3 |
| 20260510104616 | 41 | 272 | 0.0 | 0.0 | 0.00 | 0.00 | 0.00 | 91 | 1020.4 |
| 20260510104113 | 41 | 272 | 0.0 | 0.0 | 0.00 | 0.00 | 0.00 | 90 | 1020.4 |
| 20260510103608 | 41 | 272 | 0.0 | 0.0 | 0.00 | 0.00 | 0.00 | 90 | 1020.4 |
| 20260510103109 | 41 | 272 | 0.0 | 0.0 | 0.00 | 0.00 | 0.00 | 90 | 1020.4 |
| 20260510102609 | 41 | 272 | 0.0 | 0.0 | 0.00 | 0.00 | 0.00 | 90 | 1020.3 |
| 20260510102112 | 41 | 272 | 0.0 | 0.0 | 0.00 | 0.00 | 0.00 | 90 | 1020.3 |
| 20260510101609 | 41 | 272 | 0.0 | 0.0 | 0.00 | 0.00 | 0.00 | 90 | 1020.3 |
| 20260510101318 | 42 | 272 | 0.0 | 0.0 | 0.00 | 0.00 | 0.00 | 90 | 1020.4 |
| 20260510100544 | 42 | 272 | 0.0 | 0.0 | 0.00 | 0.00 | 0.00 | 89 | 1020.4 |
| 20260510100045 | 42 | 272 | 0.0 | 0.0 | 0.00 | 0.00 | 0.00 | 89 | 1020.3 |
| 20260510095540 | 42 | 272 | 0.0 | 0.0 | 0.00 | 0.00 | 0.00 | 89 | 1020.2 |
| 20260510095035 | 42 | 272 | 0.0 | 0.0 | 0.00 | 0.00 | 0.00 | 89 | 1020.2 |
| 20260510094525 | 42 | 272 | 0.0 | 0.0 | 0.00 | 0.00 | 0.00 | 89 | 1020.2 |
| 20260510094025 | 42 | 272 | 0.0 | 0.0 | 0.00 | 0.00 | 0.00 | 89 | 1020.2 |
| 20260510093743 | 42 | 272 | 0.0 | 0.0 | 0.00 | 0.00 | 0.00 | 89 | 1020.3 |
| 20260510093025 | 42 | 272 | 0.0 | 0.0 | 0.00 | 0.00 | 0.00 | 88 | 1020.2 |
| 20260510092521 | 43 | 272 | 0.0 | 0.0 | 0.00 | 0.00 | 0.00 | 88 | 1020.3 |
| 20260510092016 | 43 | 272 | 0.0 | 0.0 | 0.00 | 0.00 | 0.00 | 88 | 1020.2 |
| 20260510091725 | 43 | 272 | 0.0 | 0.0 | 0.00 | 0.00 | 0.00 | 88 | 1020.2 |
| 20260510090950 | 43 | 272 | 0.0 | 0.0 | 0.00 | 0.00 | 0.00 | 88 | 1020.1 |
| 20260510090451 | 43 | 272 | 0.0 | 0.0 | 0.00 | 0.00 | 0.00 | 88 | 1020.1 |
| 20260510085946 | 43 | 272 | 0.0 | 0.0 | 0.00 | 0.00 | 0.00 | 88 | 1020.2 |
| 20260510085716 | 43 | 272 | 0.0 | 0.0 | 0.00 | 0.00 | 0.00 | 88 | 1020.2 |
| 20260510084941 | 43 | 272 | 0.0 | 0.0 | 0.00 | 0.00 | 0.00 | 88 | 1020.2 |
| 20260510084426 | 44 | 272 | 0.0 | 0.0 | 0.00 | 0.00 | 0.00 | 88 | 1020.2 |
| 20260510083926 | 44 | 272 | 0.0 | 0.0 | 0.00 | 0.00 | 0.00 | 87 | 1020.2 |
| 20260510083642 | 44 | 272 | 0.0 | 0.0 | 0.00 | 0.00 | 0.00 | 87 | 1020.2 |
| 20260510082917 | 44 | 272 | 0.0 | 0.0 | 0.00 | 0.00 | 0.00 | 87 | 1020.2 |
| 20260510082419 | 44 | 272 | 0.0 | 0.0 | 0.00 | 0.00 | 0.00 | 87 | 1020.2 |
| 20260510081917 | 44 | 272 | 0.0 | 0.0 | 0.00 | 0.00 | 0.00 | 87 | 1020.2 |
| 20260510081417 | 44 | 272 | 0.0 | 0.0 | 0.00 | 0.00 | 0.00 | 87 | 1020.3 |
| 20260510080902 | 44 | 272 | 0.0 | 0.0 | 0.00 | 0.00 | 0.00 | 87 | 1020.2 |
| 20260510080402 | 44 | 272 | 0.0 | 0.0 | 0.00 | 0.00 | 0.00 | 87 | 1020.2 |
| 20260510075905 | 44 | 272 | 0.0 | 0.0 | 0.00 | 0.00 | 0.00 | 86 | 1020.2 |
| 20260510075620 | 45 | 272 | 0.0 | 0.0 | 0.00 | 0.00 | 0.00 | 86 | 1020.3 |
| 20260510074848 | 45 | 272 | 0.0 | 0.0 | 0.00 | 0.00 | 0.00 | 86 | 1020.2 |
| 20260510074337 | 45 | 272 | 0.0 | 0.0 | 0.00 | 0.00 | 0.00 | 86 | 1020.2 |
| 20260510074053 | 45 | 272 | 0.0 | 0.0 | 0.00 | 0.00 | 0.00 | 86 | 1020.2 |
| 20260510073559 | 45 | 272 | 0.0 | 0.0 | 0.00 | 0.00 | 0.00 | 86 | 1020.3 |
| 20260510072835 | 45 | 272 | 0.0 | 0.0 | 0.00 | 0.00 | 0.00 | 86 | 1020.2 |
| 20260510072328 | 45 | 272 | 0.0 | 0.0 | 0.00 | 0.00 | 0.00 | 86 | 1020.2 |
| 20260510071823 | 45 | 272 | 0.0 | 0.0 | 0.00 | 0.00 | 0.00 | 86 | 1020.2 |
| 20260510071326 | 45 | 272 | 0.0 | 0.0 | 0.00 | 0.00 | 0.00 | 86 | 1020.2 |
| 20260510070819 | 45 | 272 | 0.0 | 0.0 | 0.00 | 0.00 | 0.00 | 85 | 1020.2 |
| 20260510070314 | 45 | 272 | 0.0 | 0.0 | 0.00 | 0.00 | 0.00 | 85 | 1020.2 |
| 20260510065814 | 45 | 272 | 0.0 | 0.0 | 0.00 | 0.00 | 0.00 | 84 | 1020.1 |
| 20260510065314 | 45 | 272 | 0.0 | 0.0 | 0.00 | 0.00 | 0.00 | 84 | 1020.1 |
| 20260510064811 | 45 | 272 | 0.0 | 0.0 | 0.00 | 0.00 | 0.00 | 84 | 1020.2 |
| 20260510064304 | 46 | 272 | 0.0 | 0.0 | 0.00 | 0.00 | 0.00 | 84 | 1020.2 |
| 20260510064011 | 46 | 272 | 0.0 | 0.0 | 0.00 | 0.00 | 0.00 | 84 | 1020.1 |
| 20260510063249 | 46 | 272 | 0.0 | 0.0 | 0.00 | 0.00 | 0.00 | 84 | 1020.1 |
| 20260510062752 | 46 | 272 | 0.0 | 0.0 | 0.00 | 0.00 | 0.00 | 84 | 1020.1 |
| 20260510062247 | 46 | 272 | 0.0 | 0.0 | 0.00 | 0.00 | 0.00 | 84 | 1020.1 |
| 20260510061737 | 46 | 272 | 0.0 | 2.0 | 0.00 | 0.00 | 0.00 | 84 | 1020.2 |
| 20260510061235 | 46 | 272 | 0.0 | 2.0 | 0.00 | 0.00 | 0.00 | 83 | 1020.2 |
| 20260510060955 | 46 | 272 | 0.0 | 0.0 | 0.00 | 0.00 | 0.00 | 84 | 1020.2 |
| 20260510060232 | 46 | 272 | 0.0 | 0.0 | 0.00 | 0.00 | 0.00 | 84 | 1020.1 |
| 20260510055717 | 46 | 272 | 0.0 | 0.0 | 0.00 | 0.00 | 0.00 | 83 | 1020.1 |
| 20260510055215 | 47 | 272 | 0.0 | 0.0 | 0.00 | 0.00 | 0.00 | 83 | 1020.1 |
| 20260510054711 | 47 | 272 | 0.0 | 0.0 | 0.00 | 0.00 | 0.00 | 82 | 1019.9 |
| 20260510054205 | 47 | 272 | 0.0 | 0.0 | 0.00 | 0.00 | 0.00 | 82 | 1019.9 |
| 20260510053703 | 47 | 272 | 0.0 | 0.0 | 0.00 | 0.00 | 0.00 | 82 | 1019.9 |
| 20260510053146 | 47 | 272 | 0.0 | 0.0 | 0.00 | 0.00 | 0.00 | 82 | 1019.8 |
| 20260510052646 | 47 | 272 | 0.0 | 0.0 | 0.00 | 0.00 | 0.00 | 81 | 1019.8 |
| 20260510052402 | 47 | 272 | 0.0 | 0.0 | 0.00 | 0.00 | 0.00 | 81 | 1019.8 |
| 20260510051641 | 48 | 272 | 0.0 | 1.0 | 0.00 | 0.00 | 0.00 | 81 | 1019.8 |
| 20260510051405 | 48 | 272 | 0.0 | 1.0 | 0.00 | 0.00 | 0.00 | 80 | 1019.7 |
| 20260510050637 | 48 | 272 | 0.0 | 0.0 | 0.00 | 0.00 | 0.00 | 81 | 1019.8 |
| 20260510050137 | 48 | 272 | 0.0 | 1.0 | 0.00 | 0.00 | 0.00 | 80 | 1019.7 |
| 20260510045626 | 48 | 272 | 0.0 | 1.0 | 0.00 | 0.00 | 0.00 | 80 | 1019.8 |
| 20260510045127 | 49 | 272 | 0.0 | 0.0 | 0.00 | 0.00 | 0.00 | 80 | 1019.8 |
| 20260510044627 | 49 | 272 | 0.0 | 2.0 | 0.00 | 0.00 | 0.00 | 81 | 1019.8 |
| 20260510044130 | 49 | 272 | 0.0 | 2.0 | 0.00 | 0.00 | 0.00 | 79 | 1019.7 |
| 20260510043623 | 49 | 272 | 0.0 | 0.0 | 0.00 | 0.00 | 0.00 | 79 | 1019.8 |
| 20260510043608 | 49 | 272 | 0.0 | 0.0 | 0.00 | 0.00 | 0.00 | 79 | 1019.8 |
| 20260510042613 | 50 | 272 | 0.0 | 0.0 | 0.00 | 0.00 | 0.00 | 78 | 1019.7 |
| 20260510042113 | 50 | 272 | 0.0 | 0.0 | 0.00 | 0.00 | 0.00 | 78 | 1019.7 |
| 20260510041615 | 50 | 272 | 0.0 | 0.0 | 0.00 | 0.00 | 0.00 | 76 | 1019.7 |
| 20260510041337 | 51 | 272 | 0.0 | 0.0 | 0.00 | 0.00 | 0.00 | 76 | 1019.7 |
| 20260510040613 | 51 | 272 | 0.0 | 0.0 | 0.00 | 0.00 | 0.00 | 76 | 1019.7 |
| 20260510040108 | 51 | 272 | 0.0 | 0.0 | 0.00 | 0.00 | 0.00 | 75 | 1019.6 |
| 20260510035608 | 52 | 272 | 0.0 | 0.0 | 0.00 | 0.00 | 0.00 | 75 | 1019.5 |
| 20260510035109 | 52 | 272 | 0.0 | 0.0 | 0.00 | 0.00 | 0.00 | 75 | 1019.5 |
| 20260510034609 | 52 | 272 | 0.0 | 0.0 | 0.00 | 0.00 | 0.00 | 75 | 1019.4 |
| 20260510034109 | 53 | 272 | 0.0 | 0.0 | 0.00 | 0.00 | 0.00 | 73 | 1019.3 |
| 20260510033605 | 53 | 272 | 0.0 | 0.0 | 0.00 | 0.00 | 0.00 | 73 | 1019.2 |
| 20260510033100 | 53 | 272 | 0.0 | 0.0 | 0.00 | 0.00 | 0.00 | 72 | 1019.2 |
| 20260510032600 | 54 | 272 | 0.0 | 0.0 | 0.00 | 0.00 | 0.00 | 71 | 1019.2 |
| 20260510032314 | 54 | 272 | 0.0 | 0.0 | 0.00 | 0.00 | 0.00 | 71 | 1019.1 |
| 20260510031550 | 55 | 272 | 0.0 | 0.0 | 0.00 | 0.00 | 0.00 | 70 | 1019.1 |
| 20260510031050 | 55 | 272 | 0.0 | 0.0 | 0.00 | 0.00 | 0.00 | 70 | 1018.9 |
| 20260510030548 | 56 | 272 | 0.0 | 0.0 | 0.00 | 0.00 | 0.00 | 69 | 1018.9 |
| 20260510030045 | 56 | 272 | 0.0 | 0.0 | 0.00 | 0.00 | 0.00 | 68 | 1018.9 |
| 20260510025545 | 57 | 272 | 0.0 | 0.0 | 0.00 | 0.00 | 0.00 | 67 | 1018.8 |
| 20260510025045 | 58 | 272 | 0.0 | 1.0 | 0.00 | 0.00 | 0.00 | 66 | 1018.8 |
| 20260510024540 | 58 | 272 | 0.0 | 1.0 | 0.00 | 0.00 | 0.00 | 64 | 1018.8 |
| 20260510024041 | 59 | 271 | 0.0 | 1.0 | 0.00 | 0.00 | 0.00 | 63 | 1018.7 |
| 20260510023539 | 60 | 271 | 0.0 | 1.0 | 0.00 | 0.00 | 0.00 | 62 | 1018.7 |
| 20260510023036 | 61 | 271 | 0.0 | 1.0 | 0.00 | 0.00 | 0.00 | 61 | 1018.8 |
| 20260510022536 | 61 | 271 | 0.0 | 1.0 | 0.00 | 0.00 | 0.00 | 60 | 1018.8 |
| 20260510022037 | 62 | 271 | 0.0 | 1.0 | 0.00 | 0.00 | 0.00 | 58 | 1018.8 |
| 20260510021526 | 62 | 271 | 0.0 | 0.0 | 0.00 | 0.00 | 0.00 | 57 | 1018.8 |
| 20260510021026 | 63 | 271 | 0.0 | 0.0 | 0.00 | 0.00 | 0.00 | 56 | 1018.7 |
| 20260510020525 | 63 | 271 | 0.0 | 1.0 | 0.00 | 0.00 | 0.00 | 55 | 1018.8 |
| 20260510020236 | 64 | 271 | 0.0 | 1.0 | 0.00 | 0.00 | 0.00 | 55 | 1018.7 |
| 20260510015512 | 64 | 281 | 0.0 | 2.0 | 0.00 | 0.00 | 0.00 | 50 | 1018.7 |
| 20260510015011 | 64 | 281 | 0.0 | 2.0 | 0.00 | 0.00 | 0.00 | 47 | 1018.7 |
| 20260510014512 | 65 | 223 | 0.0 | 5.0 | 0.00 | 0.00 | 0.00 | 51 | 1018.6 |
| 20260510014007 | 65 | 223 | 0.0 | 5.0 | 0.00 | 0.00 | 0.00 | 43 | 1018.6 |
| 20260510013507 | 65 | 302 | 0.0 | 3.0 | 0.00 | 0.00 | 0.00 | 47 | 1018.7 |
| 20260510013010 | 65 | 273 | 0.0 | 3.0 | 0.00 | 0.00 | 0.00 | 48 | 1018.7 |
| 20260510012727 | 65 | 260 | 0.0 | 2.0 | 0.00 | 0.00 | 0.00 | 46 | 1018.7 |
| 20260510012002 | 65 | 267 | 0.0 | 2.0 | 0.00 | 0.00 | 0.00 | 44 | 1018.7 |
| 20260510011503 | 66 | 294 | 0.0 | 1.0 | 0.00 | 0.02 | 0.00 | 45 | 1018.7 |
| 20260510011231 | 66 | 279 | 0.0 | 7.0 | 0.00 | 0.03 | 0.00 | 42 | 1018.7 |
| 20260510010504 | 66 | 327 | 2.0 | 7.0 | 0.00 | 0.03 | 0.00 | 42 | 1018.7 |
| 20260510010220 | 66 | 183 | 0.0 | 6.0 | 0.00 | 0.03 | 0.00 | 43 | 1018.6 |
| 20260510005454 | 67 | 298 | 0.0 | 6.0 | 0.00 | 0.03 | 0.00 | 42 | 1018.6 |
| 20260510004948 | 67 | 41 | 0.0 | 7.0 | 0.00 | 0.03 | 0.00 | 43 | 1018.6 |
| 20260510004450 | 67 | 130 | 1.0 | 7.0 | 0.00 | 0.03 | 0.00 | 42 | 1018.6 |
| 20260510003949 | 67 | 295 | 0.0 | 2.0 | 0.00 | 0.03 | 0.00 | 41 | 1018.5 |
| 20260510003705 | 67 | 94 | 0.0 | 2.0 | 0.00 | 0.03 | 0.00 | 40 | 1018.5 |
| 20260510002944 | 67 | 291 | 0.0 | 5.0 | 0.00 | 0.03 | 0.00 | 40 | 1018.5 |
| 20260510002444 | 67 | 232 | 0.0 | 5.0 | 0.00 | 0.03 | 0.00 | 39 | 1018.5 |
| 20260510001939 | 67 | 337 | 0.0 | 5.0 | 0.00 | 0.03 | 0.00 | 40 | 1018.5 |
| 20260510001435 | 68 | 304 | 0.0 | 5.0 | 0.00 | 0.03 | 0.00 | 42 | 1018.5 |
| 20260510001208 | 68 | 296 | 1.0 | 9.0 | 0.00 | 0.03 | 0.00 | 39 | 1018.5 |
| 20260510000435 | 69 | 337 | 2.0 | 9.0 | 0.00 | 0.03 | 0.00 | 41 | 1018.5 |
| 20260509235938 | 69 | 323 | 0.0 | 8.0 | 0.00 | 0.03 | 0.00 | 39 | 1018.4 |
| 20260509235421 | 69 | 284 | 0.0 | 8.0 | 0.00 | 0.03 | 0.00 | 39 | 1018.5 |
| 20260509234920 | 69 | 209 | 2.0 | 6.0 | 0.00 | 0.03 | 0.00 | 38 | 1018.4 |
| 20260509234636 | 69 | 185 | 0.0 | 3.0 | 0.00 | 0.03 | 0.00 | 41 | 1018.4 |
| 20260509233906 | 69 | 53 | 0.0 | 4.0 | 0.00 | 0.03 | 0.00 | 42 | 1018.5 |
| 20260509233401 | 68 | 265 | 0.0 | 4.0 | 0.00 | 0.03 | 0.00 | 41 | 1018.4 |
| 20260509232901 | 68 | 230 | 0.0 | 5.0 | 0.00 | 0.03 | 0.00 | 40 | 1018.5 |
| 20260509232357 | 68 | 318 | 1.0 | 8.0 | 0.00 | 0.03 | 0.00 | 41 | 1018.5 |
| 20260509231856 | 68 | 311 | 2.0 | 8.0 | 0.00 | 0.03 | 0.00 | 40 | 1018.6 |
| 20260509231619 | 68 | 24 | 1.0 | 7.0 | 0.00 | 0.03 | 0.00 | 40 | 1018.5 |